Home   Weather   Karaikudi   Past weeks

Flag for India Past Weather in Karaikudi, Tamil Nadu, India — Yesterday and Last 2 Weeks

Now
73 °F

Fog.


Feels Like: 70 °F
Forecast: 72 / 85 °F
Wind: No wind

Location: Tiruchchirapalli

Current Time: Dec 3, 2016 at 1:40:05 am

Latest Report: Dec 3, 2016 at 1:00 am


Visibility: 1 mi

Pressure: 29.89 "Hg

Humidity: 94%

Dew Point: 72 °F

Location of KaraikudiLocation

Past Weather in Karaikudi — Graph

°F

Karaikudi Temperature Yesterday

Maximum temperature yesterday: 75 °F (at 8:00 pm)
Minimum temperature yesterday: 68 °F (at 12:00 am)
Average temperature yesterday: 71 °F

High & Low Weather Summary for the Past Weeks

 TemperatureHumidityPressure
High95 °F (Nov 27, 3:30 pm)100% (Dec 2, 5:30 pm)29.95 "Hg (Dec 2, 5:30 pm)
Low64 °F (Dec 1, 2:30 pm)28% (Nov 27, 3:30 pm)29.74 "Hg (Nov 18, 4:00 pm)
Average79 °F70%29.84 "Hg
* Reported Nov 18 12:30 am — Dec 3 12:30 am, Karaikudi, Weather by CustomWeather, © 2016

Note: Actual official high and low records may vary slightly from our data, if they occured in-between our weather recording intervals... More about our weather records

Advertising

Karaikudi Weather History for the Previous 24 Hours

Scroll right to see more
 ConditionsComfort  
Time TempWeatherWind HumidityBarometerVisibility
12:30 am
Sat, Dec 3
73 °FFog.No wind94%29.89 "Hg1 mi
12:00 am73 °FFog.No wind94%29.89 "Hg1 mi
11:30 pm
Fri, Dec 2
73 °FFog.No wind94%29.89 "Hg1 mi
10:30 pm73 °FFog.No wind94%29.89 "Hg1 mi
10:00 pm73 °FFog.No wind94%29.89 "Hg1 mi
9:30 pm73 °FFog.No wind94%29.89 "Hg1 mi
9:00 pm73 °FFog.No wind94%29.89 "Hg1 mi
8:30 pm73 °FFog.No wind94%29.86 "Hg1 mi
8:00 pm75 °FFog.No wind94%29.86 "Hg1 mi
7:30 pm73 °FFog.No wind100%29.83 "Hg1 mi
7:00 pm73 °FDrizzle. Overcast.No wind100%29.83 "Hg1 mi
6:30 pm73 °FDrizzle. Overcast.No wind100%29.83 "Hg1 mi
6:00 pm73 °FDrizzle. Cloudy.No wind100%29.80 "Hg1 mi
5:30 pm73 °FFog.No wind100%29.80 "Hg1 mi
5:00 pm73 °FFog.No wind94%29.80 "Hg1 mi
4:30 pm73 °FFog.5 mph94%29.77 "Hg1 mi
4:00 pm73 °FFog.6 mph94%29.77 "Hg1 mi
3:30 pm73 °FFog.7 mph94%29.77 "Hg1 mi
3:00 pm73 °FFog.7 mph94%29.77 "Hg1 mi
2:45 pm73 °FFog.7 mph94%29.77 "Hg1 mi
2:00 pm72 °FDrizzle. More clouds than sun.8 mph94%29.80 "Hg1 mi
1:30 pm72 °FDrizzle. More clouds than sun.8 mph94%29.80 "Hg1 mi
1:00 pm72 °FDrizzle. More clouds than sun.8 mph94%29.80 "Hg1 mi
12:30 pm72 °FDrizzle. More clouds than sun.7 mph94%29.83 "Hg1 mi
12:00 pm72 °FDrizzle. More clouds than sun.9 mph94%29.83 "Hg1 mi
11:30 am72 °FDrizzle. More clouds than sun.10 mph94%29.86 "Hg1 mi
11:00 am70 °FDrizzle. More clouds than sun.10 mph94%29.86 "Hg1 mi
10:30 am70 °FDrizzle. More clouds than sun.10 mph94%29.86 "Hg1 mi
10:00 am70 °FDrizzle. More clouds than sun.10 mph94%29.86 "Hg1 mi
9:30 am70 °FDrizzle. More clouds than sun.12 mph94%29.86 "Hg1 mi
8:30 am70 °FDrizzle. More clouds than sun.9 mph94%29.86 "Hg1 mi
8:00 am70 °FDrizzle. More clouds than sun.12 mph94%29.86 "Hg1 mi
7:30 am68 °FDrizzle. More clouds than sun.13 mph94%29.83 "Hg1 mi
7:00 am68 °FLight rain. More clouds than sun.13 mph94%29.83 "Hg1 mi
6:30 am68 °FDrizzle. Mostly cloudy.10 mph94%29.83 "Hg1 mi
6:00 am68 °FDrizzle. Mostly cloudy.10 mph94%29.80 "Hg1 mi
5:30 am68 °FPartly cloudy.10 mph94%29.80 "Hg1 mi
5:00 am68 °FFog.13 mph88%29.80 "Hg1 mi
4:30 am68 °FPartly cloudy.13 mph88%29.80 "Hg1 mi
4:00 am68 °FPartly cloudy.12 mph88%29.80 "Hg1 mi
3:30 am68 °FLight rain. Partly cloudy.12 mph88%29.80 "Hg1 mi
3:00 am68 °FFog.12 mph88%29.80 "Hg1 mi
2:30 am68 °FFog.13 mph88%29.80 "Hg1 mi
2:00 am68 °FFog.13 mph88%29.80 "Hg1 mi
1:30 am68 °FFog.13 mph88%29.83 "Hg1 mi
1:00 am68 °FDrizzle. Mostly cloudy.8 mph88%29.83 "Hg1 mi
Weather by CustomWeather, © 2016

See weather overviewHow to use our weather pages